Вернуться в каталог

COSMOS 1275 DEB

АктивенPO
NORAD 39963·DEBRIS·🇷🇺 Russia

Запущен Jun 4, 1981 с Plesetsk Cosmodrome

Loading…

Ближайшие Пролёты (ближайшие 24 часа)

TLE

УстаревающийSource: Space-Track

Эпоха: Sep 7, 2026, 12:00 UTC

1 39963U 81053NZ  26250.50062353  .00000809  00000-0  87948-3 0  9992
2 39963  83.0096 318.7628 0130619 231.1309 127.8133 13.68195007610442

Отслеживайте COSMOS 1275 DEB в реальном времени с AllMySat

Download on the App Store